sat.trackr.live / text

‹ back to catalog

STARLINK-11306 [DTC]

NORAD 61254 · 2024-175M

PAYLOAD ACTIVE UNKNOWN

§ Identity

Operator
Country
US
Launch date
2024-09-25
Launch site
AFWTR
Launch vehicle
Mass (kg)
RCS (m²)

Purposes: comms

External: N2YO · Heavens-Above · Gunter

§ Orbital elements

Epoch: 2026-05-24T23:01:31.105920Z

Period
91.74 min
Inclination
53.1590°
Eccentricity
0.0000855
Mean motion
15.69714751 rev/d
Perigee alt
359.1 km
Apogee alt
360.3 km
Semi-major
6,737.9 km
B*
3.0261e-6
RAAN
40.4150°
Arg perigee
79.4176°
Mean anomaly
280.6938°
Rev number
9,654

§ Raw data

STARLINK-11306 [DTC]1 61254U 24175M   26144.95938780 -.00000222  00000+0  30261-5 0  99962 61254  53.1590  40.4150 0000855  79.4176 280.6938 15.69714751 96545

JSON: /api/v1/satellites/61254 · /tle

For live sub-satellite position, see the globe view (requires WebGL).

§ Visibility from observer

Set your observer location to see the next 7 days of passes ≥ 10°. The values pass through the URL so the page stays shareable.

No JS? Fill the form by hand. The geolocation button needs JavaScript.